Weather History for Port Clinton Carl R Keller Fi, OH

Change the Weather History Date:

Tuesday, September 10, 2013

  Actual Average (KTOL) Record (KTOL)
Temperature  
Mean Temperature 88 °F 66 °F  
Max Temperature 100 °F 78 °F 97 °F (2013)
Min Temperature 77 °F 55 °F 38 °F (1969)
Degree Days  
Heating Degree Days 0 2  
Month to date heating degree days 14  
Since 1 July heating degree days 28  
Cooling Degree Days 24 4  
Month to date cooling degree days 44  
Year to date cooling degree days 746  
Growing Degree Days 38 (Base 50)    
Moisture  
Dew Point 72 °F    
Average Humidity 66    
Maximum Humidity 84    
Minimum Humidity 37    
Precipitation  
Precipitation 0.00 in 0.09 in 3.39 in (2014)
Month to date precipitation 0.95  
Year to date precipitation 24.27  
Snow  
Snow - 0.00 in - ()
Month to date snowfall 0.0  
Since 1 July snowfall 0.0  
Since 1 September snowfall 0.0  
Snow Depth -    
Sea Level Pressure  
Sea Level Pressure 30.00 in    
Wind  
Wind Speed 9 mph ()    
Max Wind Speed 15 mph    
Max Gust Speed -    
Visibility 10.0 miles    
Events      
T = Trace of Precipitation, MM = Missing Value Source: Averaged Metar Reports

Daily Weather History Graph

Daily Weather History Graph

Search for Another Location

Airport:

Trip Planner

Search our weather history database for the weather conditions in past years. The results will help you decide how hot, cold, wet, or windy it might be!

Date:

Astronomy

Sep. 10, 2013 Rise Set
Actual Time 7:06 AM EDT 7:48 PM EDT
Civil Twilight 6:38 AM EDT 8:16 PM EDT
Nautical Twilight 6:05 AM EDT 8:49 PM EDT
Astronomical Twilight 5:31 AM EDT 9:24 PM EDT
Moon 12:35 PM EDT (9/10) 10:46 PM EDT (9/10)
Length of Visible Light 13h 37m
Length of Day
12h 42m
Waxing Crescent, 28% of the Moon is Illuminated
Sep 10
Waxing Crescent
Sep 12
First Quarter
Sep 19
Full
Sep 26
Last Quarter
Oct 4
New

Hourly Weather History & Observations

Time (EDT) Temp. Heat Index Dew Point Humidity Pressure Visibility Wind Dir Wind Speed Gust Speed Precip Events Conditions
12:13 AM 78.8 °F - 69.8 °F 74% 29.95 in 10.0 mi SSW 8.1 mph - N/A   Clear
12:33 AM 78.8 °F - 69.8 °F 74% 29.95 in 10.0 mi SSW 6.9 mph - N/A   Clear
12:53 AM 79.0 °F - 70.0 °F 74% 29.95 in 10.0 mi SSW 6.9 mph - N/A   Clear
1:13 AM 78.8 °F - 69.8 °F 74% 29.95 in 10.0 mi SSW 9.2 mph - N/A   Clear
1:34 AM 78.8 °F - 69.8 °F 74% 29.95 in 10.0 mi SW 9.2 mph - N/A   Clear
1:53 AM 79.0 °F - 70.0 °F 74% 29.95 in 10.0 mi SSW 9.2 mph - N/A   Clear
2:13 AM 78.8 °F - 69.8 °F 74% 29.95 in 10.0 mi SW 12.7 mph - N/A   Clear
2:34 AM 78.8 °F - 69.8 °F 74% 29.95 in 10.0 mi SW 10.4 mph - N/A   Clear
2:53 AM 79.0 °F - 70.9 °F 76% 29.95 in 10.0 mi SW 9.2 mph - N/A   Clear
3:13 AM 78.8 °F - 71.6 °F 78% 29.96 in 10.0 mi SW 9.2 mph - N/A   Clear
3:34 AM 78.8 °F - 71.6 °F 78% 29.96 in 10.0 mi SW 9.2 mph - N/A   Clear
3:53 AM 79.0 °F - 70.9 °F 76% 29.96 in 10.0 mi SW 11.5 mph - N/A   Clear
4:13 AM 78.8 °F - 71.6 °F 78% 29.96 in 10.0 mi SW 11.5 mph - N/A   Clear
4:34 AM 78.8 °F - 71.6 °F 78% 29.97 in 10.0 mi SW 11.5 mph - N/A   Clear
4:53 AM 77.9 °F - 70.9 °F 79% 29.97 in 10.0 mi SW 11.5 mph - N/A   Clear
5:13 AM 78.8 °F - 71.6 °F 78% 29.98 in 10.0 mi SW 9.2 mph - N/A   Clear
5:34 AM 77.0 °F - 71.6 °F 83% 29.98 in 10.0 mi SW 9.2 mph - N/A   Clear
5:53 AM 77.0 °F - 72.0 °F 84% 29.98 in 10.0 mi SW 10.4 mph - N/A   Clear
6:13 AM 77.0 °F - 71.6 °F 83% 29.99 in 10.0 mi SW 10.4 mph - N/A   Clear
6:33 AM 77.0 °F - 71.6 °F 83% 29.99 in 10.0 mi SW 10.4 mph - N/A   Clear
6:53 AM 77.0 °F - 72.0 °F 84% 30.00 in 10.0 mi SW 9.2 mph - N/A   Clear
7:13 AM 77.0 °F - 71.6 °F 83% 30.00 in 10.0 mi SW 9.2 mph - N/A   Clear
7:33 AM 77.0 °F - 71.6 °F 83% 30.00 in 10.0 mi SW 9.2 mph - N/A   Clear
7:53 AM 77.0 °F - 72.0 °F 84% 30.00 in 10.0 mi SW 10.4 mph - N/A   Clear
8:13 AM 78.8 °F - 73.4 °F 83% 30.01 in 10.0 mi SW 12.7 mph - N/A   Clear
8:33 AM 78.8 °F - 73.4 °F 83% 30.01 in 10.0 mi SW 12.7 mph - N/A   Clear
8:54 AM 79.9 °F - 73.9 °F 82% 30.01 in 10.0 mi WSW 11.5 mph - N/A   Clear
9:13 AM 80.6 °F 85.4 °F 73.4 °F 79% 30.01 in 10.0 mi WSW 10.4 mph - N/A   Clear
9:33 AM 82.4 °F 89.5 °F 75.2 °F 79% 30.01 in 10.0 mi WSW 13.8 mph - N/A   Clear
9:54 AM 83.8 °F 91.4 °F 74.8 °F 74% 30.02 in 10.0 mi WSW 12.7 mph - N/A   Clear
10:13 AM 84.2 °F 92.3 °F 75.2 °F 74% 30.02 in 10.0 mi WSW 13.8 mph - N/A   Clear
10:33 AM 86.0 °F 95.1 °F 75.2 °F 70% 30.02 in 10.0 mi WSW 12.7 mph - N/A   Clear
10:54 AM 86.9 °F 97.3 °F 75.9 °F 70% 30.02 in 10.0 mi WSW 12.7 mph - N/A   Clear
11:13 AM 89.6 °F 99.8 °F 75.2 °F 62% 30.02 in 10.0 mi WSW 15.0 mph - N/A   Clear
11:33 AM 89.6 °F 102.2 °F 77.0 °F 66% 30.02 in 10.0 mi WSW 12.7 mph - N/A   Clear
11:54 AM 90.9 °F 104.3 °F 77.0 °F 64% 30.02 in 10.0 mi SW 11.5 mph - N/A   Clear
12:13 PM 91.4 °F 102.5 °F 75.2 °F 59% 30.02 in 10.0 mi SW 11.5 mph - N/A   Clear
12:33 PM 93.2 °F 105.0 °F 75.2 °F 56% 30.03 in 10.0 mi WSW 12.7 mph - N/A   Clear
12:53 PM 93.9 °F 106.9 °F 75.9 °F 56% 30.02 in 10.0 mi WSW 9.2 mph - N/A   Clear
1:13 PM 95.0 °F 109.7 °F 77.0 °F 56% 30.02 in 10.0 mi WSW 10.4 mph - N/A   Clear
1:33 PM 95.0 °F 107.4 °F 75.2 °F 53% 30.02 in 10.0 mi SW 10.4 mph - N/A   Clear
1:53 PM 95.9 °F 108.9 °F 75.9 °F 52% 30.02 in 10.0 mi WSW 10.4 mph - N/A   Clear
2:13 PM 96.8 °F 109.6 °F 75.2 °F 50% 30.02 in 10.0 mi WSW 11.5 mph - N/A   Clear
2:34 PM 96.8 °F 109.6 °F 75.2 °F 50% 30.02 in 10.0 mi SW 9.2 mph - N/A   Clear
2:53 PM 97.9 °F 109.9 °F 74.8 °F 47% 30.01 in 10.0 mi WSW 9.2 mph - N/A   Clear
3:13 PM 98.6 °F 109.2 °F 73.4 °F 44% 30.01 in 10.0 mi West 11.5 mph - N/A   Clear
3:34 PM 100.4 °F 109.3 °F 71.6 °F 39% 30.00 in 10.0 mi WSW 10.4 mph - N/A   Clear
3:53 PM 99.9 °F 109.7 °F 72.0 °F 41% 30.00 in 10.0 mi WSW 8.1 mph - N/A   Clear
4:13 PM 100.4 °F 107.8 °F 69.8 °F 37% 30.00 in 10.0 mi WSW 11.5 mph - N/A   Clear
4:33 PM 100.4 °F 109.3 °F 71.6 °F 39% 30.00 in 10.0 mi WSW 11.5 mph - N/A   Clear
4:53 PM 99.9 °F 108.2 °F 70.9 °F 39% 29.99 in 10.0 mi WSW 9.2 mph - N/A   Clear
5:13 PM 98.6 °F 107.7 °F 71.6 °F 42% 29.99 in 10.0 mi WSW 6.9 mph - N/A   Clear
5:33 PM 98.6 °F 107.7 °F 71.6 °F 42% 29.99 in 10.0 mi SW 8.1 mph - N/A   Clear
5:53 PM 95.9 °F 104.5 °F 72.0 °F 46% 29.99 in 10.0 mi WSW 6.9 mph - N/A   Clear
6:13 PM 96.8 °F 105.1 °F 71.6 °F 44% 29.99 in 10.0 mi WSW 5.8 mph - N/A   Clear
6:33 PM 95.0 °F 103.2 °F 71.6 °F 47% 30.00 in 10.0 mi WSW 6.9 mph - N/A   Clear
6:54 PM 92.8 °F 100.3 °F 72.0 °F 50% 30.00 in 10.0 mi WSW 5.8 mph - N/A   Clear
7:13 PM 91.4 °F 100.1 °F 73.4 °F 55% 30.01 in 10.0 mi WSW 5.8 mph - N/A   Clear
7:33 PM 89.6 °F 96.2 °F 71.6 °F 55% 30.01 in 10.0 mi West 5.8 mph - N/A   Partly Cloudy
7:53 PM 88.0 °F 94.7 °F 72.0 °F 59% 30.02 in 10.0 mi WSW 5.8 mph - N/A   Mostly Cloudy
8:13 PM 87.8 °F 93.8 °F 71.6 °F 58% 30.02 in 10.0 mi WSW 4.6 mph - N/A   Partly Cloudy
8:34 PM 86.0 °F 91.8 °F 71.6 °F 62% 30.03 in 10.0 mi SW 3.5 mph - N/A   Clear
8:53 PM 84.9 °F 90.1 °F 70.9 °F 63% 30.03 in 10.0 mi SW 4.6 mph - N/A   Clear
9:13 PM 82.4 °F 87.2 °F 71.6 °F 70% 30.04 in 10.0 mi SSW 5.8 mph - N/A   Clear
9:33 PM 82.4 °F 86.3 °F 69.8 °F 66% 30.05 in 10.0 mi SW 6.9 mph - N/A   Clear
9:53 PM 83.8 °F 88.1 °F 70.0 °F 63% 30.05 in 10.0 mi SSW 6.9 mph - N/A   Clear
10:13 PM 84.2 °F 89.6 °F 71.6 °F 66% 30.05 in 10.0 mi SSW 6.9 mph - N/A   Clear
10:33 PM 82.4 °F 87.2 °F 71.6 °F 70% 30.05 in 10.0 mi SW 6.9 mph - N/A   Clear
10:53 PM 82.9 °F 87.5 °F 70.9 °F 67% 30.05 in 10.0 mi WSW 5.8 mph - N/A   Clear
11:14 PM 82.4 °F 87.2 °F 71.6 °F 70% 30.06 in 10.0 mi SW 6.9 mph - N/A   Clear
11:33 PM 82.4 °F 87.2 °F 71.6 °F 70% 30.06 in 10.0 mi SW 6.9 mph - N/A   Clear
11:53 PM 81.9 °F 86.6 °F 72.0 °F 72% 30.06 in 10.0 mi SW 6.9 mph - N/A   Clear